Vertical_Velocity
-5 10 -0 10 -34 33 -1 -5 -3 3 -1 -1 8 4 4 -0 -1 -5 -1 -1 1 -1 1 -2 -2 -1 -0 -1 -1 0 -1 -3
5 3 -5 -6 24 -10 -12 -13 -8 0 -0 5 3 -3 -1 1 -9 -1 -1 -4 -1 -2 1 2 3 2 -3 -3 -1 -4 -3 0
-2 -21 6 0 -7 -7 -3 -9 -2 5 8 2 5 8 9 1 -0 -2 1 -1 2 0 0 1 -2 -2 2 0 -0 -0 -1 -1
16 3 6 3 3 -0 3 7 4 0 8 4 7 1 -1 -4 0 5 4 1 2 1 -2 -2 -1 -1 1 -1 -2 1 -0 -1
-5 -6 -8 -14 7 5 -1 -8 -9 0 12 3 4 6 -1 -4 -3 -7 -4 -2 -7 -5 -3 -1 -3 -3 -2 -1 2 -2 -2 -1
11 58 11 -11 1 1 3 -14 15 3 -2 5 3 4 0 -0 1 0 -1 -1 2 0 2 -1 -4 -1 -3 -2 0 -3 -1 -1
5 -18 -2 -2 4 2 -6 15 -13 7 4 -2 10 4 4 1 -5 -2 1 -2 -2 -4 2 2 -3 -1 0 -1 -2 -3 2 -1
-5 0 -0 3 -3 -1 -2 -2 0 -1 3 2 -5 8 8 4 5 5 5 -1 -5 -0 -6 -3 -1 -1 -0 2 -2 0 -4 1
9 7 1 -20 3 5 4 -2 6 -2 21 -1 0 4 6 2 3 4 2 2 -2 -4 -1 -2 -1 -2 4 -1 -2 -1 -3 1
12 -15 -25 46 -2 -5 1 -2 -3 -7 -3 2 2 4 5 0 -2 1 2 1 -0 0 -7 -3 -4 -3 -1 4 2 -5 -1 -2
-10 3 20 -0 -2 9 7 5 1 2 -6 2 2 2 6 7 7 3 -1 -2 -0 -1 1 3 5 5 2 -2 3 -2 -6 -3
6 -4 -3 22 5 -1 -8 8 -1 6 7 -1 -3 -2 15 -2 -2 -0 -3 1 1 2 0 2 5 5 0 1 5 5 3 -2
8 -3 6 0 -17 8 21 -13 -3 -10 -9 -3 -5 -6 -2 8 0 0 1 -0 -3 -3 2 5 6 0 -1 -1 3 3 -1 1
8 -5 -22 -9 -14 37 -23 -2 -7 -5 -5 -5 -1 5 1 -2 3 1 -0 0 -0 -0 -1 -2 3 3 1 4 -1 3 5 2
-8 -3 19 0 -6 -9 16 -1 4 -0 3 2 1 0 3 -1 -1 1 -3 -4 -6 -7 -2 -1 1 1 4 2 -0 0 2 -0
-13 3 -3 0 17 11 -6 4 2 5 -1 2 4 -3 2 1 0 -2 1 1 1 -4 -6 -2 -1 -2 0 -0 0 2 2 -0
-10 -4 -9 -10 -1 16 -2 -13 -9 -5 -4 1 2 2 -0 0 3 2 2 1 -1 -3 -3 -4 -2 -3 -2 -1 -1 -2 -1 -0
0 5 -12 -10 -20 -16 -2 10 -0 1 2 2 2 3 -4 3 -4 -1 2 -2 -1 4 3 -2 -6 -5 -3 -3 -1 0 0 -1
5 -8 -9 1 -13 4 -1 -2 -2 -2 0 3 2 1 -1 -4 -2 -4 -5 4 8 4 -3 1 -1 -5 -5 -3 -0 -1 -0 -1
Height
5798 5805 5809 5812 5814 5827 5824 5827 5831 5838 5841 5845 5850 5855 5860 5866 5868 5870 5874 5877 5883 5885 5887 5890 5893 5898 5901 5903 5906 5909 5911 5911
5788 5794 5797 5801 5814 5809 5815 5821 5827 5833 5837 5840 5846 5850 5855 5860 5864 5868 5871 5875 5880 5883 5886 5888 5892 5895 5897 5900 5904 5906 5907 5909
5774 5781 5786 5792 5795 5802 5811 5817 5822 5828 5834 5835 5841 5845 5850 5856 5860 5864 5868 5873 5877 5880 5884 5887 5888 5892 5896 5898 5900 5902 5904 5906
5766 5773 5778 5785 5792 5799 5802 5811 5816 5821 5829 5829 5836 5840 5843 5849 5855 5859 5863 5867 5871 5876 5879 5882 5886 5889 5892 5894 5896 5900 5902 5903
5750 5759 5764 5770 5781 5786 5793 5804 5808 5815 5821 5824 5830 5835 5839 5843 5846 5850 5856 5862 5866 5870 5875 5879 5882 5886 5889 5891 5894 5895 5897 5900
5742 5754 5757 5762 5769 5774 5783 5793 5802 5807 5813 5819 5825 5829 5833 5837 5842 5845 5850 5854 5859 5865 5870 5875 5878 5881 5884 5887 5889 5891 5893 5895
5726 5731 5740 5748 5758 5765 5772 5785 5791 5803 5808 5813 5820 5825 5828 5830 5833 5839 5843 5847 5851 5856 5862 5866 5870 5875 5879 5882 5884 5886 5888 5891
5712 5722 5731 5737 5745 5752 5764 5774 5782 5793 5799 5806 5812 5819 5824 5828 5830 5833 5837 5840 5844 5850 5853 5859 5864 5868 5872 5876 5878 5880 5884 5887
5701 5710 5719 5723 5736 5743 5754 5762 5772 5784 5792 5800 5805 5812 5818 5820 5824 5826 5829 5833 5838 5843 5848 5853 5858 5862 5867 5870 5871 5876 5878 5881
5686 5691 5703 5719 5724 5728 5739 5752 5762 5772 5778 5788 5794 5802 5807 5812 5816 5820 5824 5828 5832 5836 5839 5845 5850 5854 5860 5864 5867 5870 5873 5875
5671 5680 5696 5700 5707 5716 5723 5739 5747 5758 5765 5775 5783 5791 5799 5806 5811 5815 5818 5822 5825 5829 5834 5838 5843 5848 5851 5855 5860 5862 5866 5870
5655 5666 5679 5692 5696 5703 5708 5728 5735 5744 5756 5763 5772 5780 5793 5797 5799 5804 5808 5813 5818 5823 5827 5832 5836 5840 5843 5847 5851 5856 5859 5862
5638 5648 5662 5673 5680 5691 5700 5714 5722 5731 5742 5749 5761 5769 5781 5784 5791 5797 5801 5805 5809 5813 5819 5824 5829 5831 5834 5837 5843 5847 5849 5853
5623 5632 5641 5656 5667 5682 5683 5694 5705 5717 5731 5739 5750 5758 5766 5774 5782 5788 5792 5797 5801 5806 5811 5815 5819 5822 5826 5830 5834 5838 5841 5845
5607 5621 5630 5639 5650 5661 5675 5682 5696 5707 5720 5730 5739 5748 5755 5764 5772 5777 5782 5787 5792 5796 5801 5806 5810 5814 5818 5821 5824 5827 5830 5834
5591 5608 5615 5626 5641 5652 5658 5672 5681 5695 5706 5719 5728 5736 5745 5751 5759 5765 5771 5777 5782 5787 5791 5796 5801 5804 5808 5811 5815 5818 5821 5823
5583 5592 5602 5610 5624 5635 5645 5657 5670 5680 5693 5706 5716 5725 5735 5742 5748 5753 5761 5765 5771 5776 5780 5785 5789 5793 5797 5801 5804 5807 5809 5812
5575 5580 5583 5596 5608 5621 5636 5647 5659 5670 5682 5694 5705 5713 5721 5729 5737 5744 5748 5754 5760 5765 5770 5773 5777 5781 5786 5789 5793 5796 5798 5799
5558 5563 5571 5585 5596 5609 5622 5633 5645 5659 5671 5682 5692 5701 5708 5715 5723 5730 5738 5745 5749 5753 5757 5762 5765 5769 5774 5778 5780 5783 5785 5787